Tracking 35016 objects as of 7-Aug-2026
HD Live streaming from Space Station
objects crossing your sky now

STARLINK-32191

Track STARLINK-32191 now!
10-day predictions
STARLINK-32191 is classified as:


NORAD ID: 60314
Int'l Code: 2024-133P
Launch date: July 28, 2024
Source: United States (US)
Launch site: AIR FORCE WESTERN TEST RANGE (AFWTR)
Your satellite tracking list
Your tracking list is empty




NASA's NSSDC Master Catalog

Two Line Element Set (TLE):
1 60314U 24133P   26218.66662985  .00002015  00000-0  70774-4 0  9991
2 60314  53.1613 319.6420 0001116  73.4527 286.6598 15.34389915114612
Source of the keplerian elements: AFSPC